Location: Central Falls
(41.8900°N, 71.3929°W)
Time: 10:35:15
(UTC+00:00)

A-11 Canister half - Pass Details

Date: 07 December 2023
Orbit: 1526 x 1682 km, 47.3° (Epoch: 20 February)

Event Time Altitude Azimuth Distance (km) Brightness Sun altitude
Rises 08:01:17 0° 287° (WNW) 4,858 - -43.5°
Reaches altitude 10° 08:06:50 10° 263° (W) 3,830 - -42.4°
Maximum altitude 08:10:40 13° 239° (WSW) 3,564 - -41.7°
Drops below altitude 10° 08:14:28 10° 215° (SW) 3,773 - -41.0°
Sets 08:19:54 0° 190° (S) 4,718 - -40.0°
